Change the Weather History Date:

Friday, August 22, 2014

  Actual Average Record
Temperature  
Mean Temperature 74 °F -  
Max Temperature 82 °F 80 °F 93 °F (2002)
Min Temperature 66 °F 60 °F 52 °F (2004)
Cooling Degree Days 9    
Growing Degree Days 24 (Base 50)    
Moisture  
Dew Point 70 °F    
Average Humidity 86    
Maximum Humidity 97    
Minimum Humidity 67    
Precipitation  
Precipitation 0.97 in - - ()
Sea Level Pressure  
Sea Level Pressure 29.99 in    
Wind  
Wind Speed 6 mph (South)    
Max Wind Speed 13 mph    
Max Gust Speed -    
Visibility 7 miles    
Events Rain , Thunderstorm    
Averages and records for this station are not official NWS values.
T = Trace of Precipitation, MM = Missing Value Source: NWS Daily Summary

Daily Weather History Graph

Daily Weather History Graph

Search for Another Location

Airport or City:

Trip Planner

Search our weather history database for the weather conditions in past years. The results will help you decide how hot, cold, wet, or windy it might be!

Date:

Astronomy

Aug. 22, 2014 Rise Set
Actual Time 6:50 AM EDT 8:19 PM EDT
Civil Twilight 6:21 AM EDT 8:47 PM EDT
Nautical Twilight 5:47 AM EDT 9:21 PM EDT
Astronomical Twilight 5:11 AM EDT 9:57 PM EDT
Moon 4:12 AM EDT (8/22) 6:26 PM EDT (8/22)
Length of Visible Light 14h 25m
Length of Day
13h 28m
Waning Crescent, 8% of the Moon is Illuminated
Aug 22
Waning Crescent
Aug 25
New
Sep 2
First Quarter
Sep 8
Full
Sep 15
Last Quarter

Hourly Weather History & Observations

Time (EDT) Temp. Heat Index Dew Point Humidity Pressure Visibility Wind Dir Wind Speed Gust Speed Precip Events Conditions
12:11 AM 72.0 °F - 70.0 °F 93% 30.01 in 1.8 mi East 5.8 mph - 0.11 in Rain Heavy Rain
12:17 AM 72.0 °F - 70.0 °F 93% 30.01 in 2.0 mi ENE 4.6 mph - 0.18 in Rain , Thunderstorm Heavy Rain
12:22 AM 72.0 °F - 70.0 °F 93% 30.01 in 2.5 mi NE 5.8 mph - 0.20 in Rain , Thunderstorm Rain
12:25 AM 71.1 °F - 70.0 °F 96% 30.01 in 3.0 mi NE 5.8 mph - 0.21 in Rain , Thunderstorm Heavy Thunderstorms and Rain
12:29 AM 71.1 °F - 70.0 °F 96% 30.01 in 3.0 mi ENE 6.9 mph - 0.22 in Rain , Thunderstorm Thunderstorms and Rain
12:34 AM 71.1 °F - 70.0 °F 96% 30.02 in 1.8 mi ENE 8.1 mph - 0.35 in Rain , Thunderstorm Heavy Thunderstorms and Rain
12:42 AM 71.1 °F - 70.0 °F 96% 30.01 in 1.5 mi ESE 12.7 mph - 0.43 in Rain , Thunderstorm Heavy Thunderstorms and Rain
12:53 AM 72.0 °F - 71.1 °F 97% 30.01 in 3.0 mi North 9.2 mph - 0.49 in Rain , Thunderstorm Thunderstorms and Rain
1:11 AM 73.0 °F - 71.1 °F 93% 30.00 in 4.0 mi Calm Calm - 0.05 in Rain , Thunderstorm Rain
1:18 AM 73.0 °F - 71.1 °F 93% 30.00 in 5.0 mi North 4.6 mph - 0.08 in Rain , Thunderstorm Rain
1:21 AM 73.0 °F - 71.1 °F 93% 30.02 in 2.5 mi WNW 6.9 mph - 0.12 in Rain , Thunderstorm Heavy Rain
1:23 AM 73.0 °F - 71.1 °F 93% 30.02 in 1.8 mi WNW 9.2 mph - 0.20 in Rain Heavy Rain
1:32 AM 72.0 °F - 70.0 °F 93% 30.01 in 0.8 mi Variable 4.6 mph - 0.45 in Rain Heavy Rain
1:34 AM 72.0 °F - 70.0 °F 93% 30.01 in 0.8 mi South 5.8 mph - 0.46 in Rain , Thunderstorm Heavy Rain
1:38 AM 72.0 °F - 70.0 °F 93% 30.01 in 2.0 mi South 3.5 mph - 0.46 in Rain , Thunderstorm Thunderstorms and Rain
1:41 AM 72.0 °F - 70.0 °F 93% 30.01 in 4.0 mi SW 6.9 mph - 0.46 in Rain , Thunderstorm Light Thunderstorms and Rain
1:51 AM 73.4 °F - 69.8 °F 88% 30.00 in 8.0 mi SW 5.8 mph - 0.47 in Rain Light Rain
1:53 AM 73.0 °F - 70.0 °F 90% 29.99 in 9.0 mi SW 5.8 mph - 0.47 in Rain Light Rain
2:26 AM 71.1 °F - 66.9 °F 87% 29.99 in 10.0 mi WSW 12.7 mph - 0.00 in   Overcast
2:53 AM 70.0 °F - 66.9 °F 90% 29.97 in 10.0 mi WSW 8.1 mph - 0.00 in   Mostly Cloudy
3:53 AM 66.9 °F - 66.0 °F 97% 29.96 in 9.0 mi West 3.5 mph - N/A   Clear
4:37 AM 68.0 °F - 66.9 °F 96% 29.98 in 1.8 mi Calm Calm - N/A   Partly Cloudy
4:41 AM 66.9 °F - 66.0 °F 97% 29.98 in 0.8 mi Calm Calm - N/A   Mist
5:04 AM 66.9 °F - 66.0 °F 97% 29.99 in 4.0 mi Calm Calm - N/A   Partly Cloudy
5:53 AM 68.0 °F - 66.9 °F 96% 29.97 in 8.0 mi South 3.5 mph - N/A   Overcast
6:53 AM 68.0 °F - 66.9 °F 96% 29.98 in 4.0 mi South 3.5 mph - N/A   Clear
7:44 AM 69.1 °F - 68.0 °F 96% 30.01 in 5.0 mi South 3.5 mph - N/A   Mostly Cloudy
8:53 AM 71.1 °F - 68.0 °F 90% 30.01 in 5.0 mi SE 4.6 mph - N/A   Overcast
9:25 AM 71.1 °F - 69.1 °F 93% 30.02 in 5.0 mi ESE 3.5 mph - N/A   Mostly Cloudy
9:53 AM 72.0 °F - 69.1 °F 91% 30.01 in 5.0 mi SE 4.6 mph - N/A   Scattered Clouds
10:53 AM 73.9 °F - 70.0 °F 87% 30.00 in 9.0 mi South 6.9 mph - N/A   Scattered Clouds
11:53 AM 75.9 °F - 70.0 °F 82% 29.97 in 10.0 mi SSE 5.8 mph - N/A   Scattered Clouds
12:27 PM 78.1 °F - 71.1 °F 79% 29.99 in 10.0 mi SSE 3.5 mph - N/A   Mostly Cloudy
12:42 PM 79.0 °F - 70.0 °F 74% 29.99 in 10.0 mi Variable 3.5 mph - N/A   Overcast
12:53 PM 79.0 °F - 70.0 °F 74% 29.97 in 10.0 mi SSW 3.5 mph - N/A   Overcast
1:53 PM 80.1 °F 83.2 °F 70.0 °F 71% 29.95 in 10.0 mi ESE 3.5 mph - N/A   Mostly Cloudy
2:23 PM 82.9 °F 88.0 °F 72.0 °F 69% 29.98 in 10.0 mi South 6.9 mph - N/A   Mostly Cloudy
2:30 PM 82.0 °F 85.9 °F 70.0 °F 67% 29.97 in 10.0 mi SW 6.9 mph - N/A   Overcast
2:38 PM 82.9 °F 87.5 °F 71.1 °F 67% 29.97 in 10.0 mi SSW 5.8 mph - N/A   Mostly Cloudy
2:53 PM 82.0 °F 86.3 °F 71.1 °F 69% 29.96 in 10.0 mi SSW 8.1 mph - N/A   Mostly Cloudy
3:12 PM 82.0 °F 86.3 °F 71.1 °F 69% 29.97 in 10.0 mi South 8.1 mph - N/A   Mostly Cloudy
3:28 PM 82.9 °F 88.0 °F 72.0 °F 69% 29.97 in 10.0 mi South 11.5 mph - N/A   Mostly Cloudy
3:53 PM 82.0 °F 86.3 °F 71.1 °F 69% 29.94 in 10.0 mi WSW 5.8 mph - N/A   Mostly Cloudy
4:37 PM 81.0 °F 84.9 °F 71.1 °F 72% 29.96 in 10.0 mi South 10.4 mph - N/A   Mostly Cloudy
4:45 PM 81.0 °F 84.9 °F 71.1 °F 72% 29.96 in 10.0 mi SSW 10.4 mph - N/A   Overcast
5:53 PM 81.0 °F 85.2 °F 72.0 °F 74% 29.94 in 10.0 mi SW 9.2 mph - 0.01 in   Mostly Cloudy
6:53 PM 80.1 °F 83.8 °F 72.0 °F 76% 29.93 in 10.0 mi SSW 3.5 mph - N/A   Overcast
7:12 PM 79.0 °F - 72.0 °F 79% 29.95 in 10.0 mi Calm Calm - 0.00 in Rain Light Rain
7:53 PM 79.0 °F - 73.0 °F 82% 29.94 in 10.0 mi Calm Calm - 0.00 in Rain Light Rain
8:53 PM 77.0 °F - 72.0 °F 84% 29.95 in 8.0 mi NNW 4.6 mph - 0.00 in   Partly Cloudy
9:53 PM 75.9 °F - 72.0 °F 87% 29.97 in 10.0 mi WNW 3.5 mph - N/A   Mostly Cloudy
10:53 PM 75.0 °F - 72.0 °F 90% 29.98 in 10.0 mi Calm Calm - N/A   Clear
11:53 PM 73.9 °F - 72.0 °F 93% 29.99 in 7.0 mi NNW 3.5 mph - N/A   Clear